IGO301 VABB-WSSS

Flight info

Callsign IGO301
Flight time N/A
Altitude 34000
Route VABB/27 N0465F350 VEVA2A AGELA N571 BIKEN/N0458F370 N571 GUNIP M630 NIREN Y511 TOPOR A464 ARAMA LELI3B WSSS/20R
Aircraft A321/M-SDFGHIRWY/C

Departure

Time 2026-05-04 08:16
Airport Chhatrapati Shivaji Maharaj International Airport (VABB)

Arrival

Time N/A
Airport Singapore Changi Airport (WSSS)
Time Latitude Longitude Altitude Speed Heading
2026-05-04 07:53 19.09158 72.85486 31 ft 0 kts 359°
2026-05-04 08:02 19.09102 72.85485 30 ft 3 kts 33°
2026-05-04 08:02 19.09092 72.85469 30 ft 3 kts 96°
2026-05-04 08:02 19.09093 72.85462 30 ft 0 kts 90°
2026-05-04 08:08 19.09093 72.85463 30 ft 3 kts 90°
2026-05-04 08:08 19.09093 72.85528 30 ft 9 kts 90°
2026-05-04 08:10 19.09033 72.86342 35 ft 28 kts 89°
2026-05-04 08:11 19.09040 72.86550 35 ft 28 kts 89°
2026-05-04 08:11 19.09046 72.86964 36 ft 28 kts 90°
2026-05-04 08:11 19.09046 72.87170 37 ft 28 kts 90°
2026-05-04 08:12 19.09052 72.87377 38 ft 28 kts 88°
2026-05-04 08:12 19.09057 72.87581 39 ft 28 kts 89°
2026-05-04 08:12 19.09061 72.87786 40 ft 28 kts 89°
2026-05-04 08:12 19.09060 72.87977 41 ft 20 kts 91°
2026-05-04 08:13 19.09032 72.88049 42 ft 9 kts 160°
2026-05-04 08:13 19.08962 72.88046 41 ft 13 kts 199°
2026-05-04 08:13 19.08905 72.87971 40 ft 13 kts 242°
2026-05-04 08:13 19.08887 72.87866 40 ft 15 kts 270°
2026-05-04 08:14 19.08882 72.87582 38 ft 78 kts 269°
2026-05-04 08:14 19.08870 72.86694 36 ft 159 kts 268°
2026-05-04 08:14 19.08647 72.85435 531 ft 178 kts 250°
2026-05-04 08:16 19.07965 72.73959 5117 ft 231 kts 251°
2026-05-04 08:16 19.07002 72.72519 5543 ft 254 kts 221°
2026-05-04 08:16 19.05341 72.71813 6281 ft 267 kts 188°
2026-05-04 08:17 19.03511 72.72165 7315 ft 269 kts 157°
2026-05-04 08:17 19.01906 72.73150 8345 ft 276 kts 142°
2026-05-04 08:17 19.00845 72.74004 8443 ft 302 kts 143°
2026-05-04 08:17 18.98476 72.75763 8999 ft 314 kts 154°